Time,TemperatureF,DewpointF,PressureIn,WindDirection,WindDirectionDegrees,WindSpeedMPH,WindSpeedGustMPH,Humidity,HourlyPrecipIn,Conditions,Clouds,dailyrainin,SoftwareType,DateUTC
2013-05-15 00:00:00,55.0,32.3,29.69,ESE,116,0.0,4.0,42,0.00,,,-99.99,Weather View 32 v60,2013-05-15 04:00:00,
2013-05-15 00:05:00,54.9,32.7,29.67,SSE,152,0.0,4.0,43,0.00,,,-99.99,Weather View 32 v60,2013-05-15 04:05:00,
2013-05-15 00:13:00,54.5,33.0,29.67,ENE,69,3.0,4.0,44,0.00,,,-99.99,Weather View 32 v60,2013-05-15 04:13:00,
2013-05-15 00:20:00,54.5,32.4,29.67,NE,53,0.0,4.0,43,0.00,,,-99.99,Weather View 32 v60,2013-05-15 04:20:00,
2013-05-15 00:25:00,54.3,32.3,29.67,SE,128,0.0,4.0,43,0.00,,,-99.99,Weather View 32 v60,2013-05-15 04:25:00,
2013-05-15 00:30:00,54.3,32.8,29.67,SE,133,0.0,4.0,44,0.00,,,-99.99,Weather View 32 v60,2013-05-15 04:30:00,
2013-05-15 00:35:00,54.1,33.2,29.67,SE,134,0.0,4.0,45,0.00,,,-99.99,Weather View 32 v60,2013-05-15 04:35:00,
2013-05-15 00:40:00,54.0,33.1,29.67,ENE,66,0.0,4.0,45,0.00,,,-99.99,Weather View 32 v60,2013-05-15 04:40:00,
2013-05-15 00:50:00,54.0,33.1,29.64,ENE,65,4.0,5.0,45,0.00,,,-99.99,Weather View 32 v60,2013-05-15 04:50:00,
2013-05-15 00:55:00,54.0,33.6,29.64,ESE,116,3.0,6.0,46,0.00,,,-99.99,Weather View 32 v60,2013-05-15 04:55:00,
2013-05-15 01:05:00,54.1,33.8,29.61,ESE,119,3.0,6.0,46,0.00,,,-99.99,Weather View 32 v60,2013-05-15 05:05:00,
2013-05-15 01:10:00,54.3,33.9,29.61,East,97,0.0,6.0,46,0.00,,,-99.99,Weather View 32 v60,2013-05-15 05:10:00,
2013-05-15 01:15:00,54.3,33.9,29.61,SE,125,0.0,6.0,46,0.00,,,-99.99,Weather View 32 v60,2013-05-15 05:15:00,
2013-05-15 01:20:00,54.5,34.1,29.61,SE,137,0.0,6.0,46,0.00,,,-99.99,Weather View 32 v60,2013-05-15 05:20:00,
2013-05-15 01:25:00,54.7,34.3,29.61,SE,140,0.0,6.0,46,0.00,,,-99.99,Weather View 32 v60,2013-05-15 05:25:00,
2013-05-15 01:35:00,54.9,34.4,29.61,SSE,153,0.0,6.0,46,0.00,,,-99.99,Weather View 32 v60,2013-05-15 05:35:00,
2013-05-15 01:40:00,54.7,34.3,29.61,SSE,159,3.0,6.0,46,0.00,,,-99.99,Weather View 32 v60,2013-05-15 05:40:00,
2013-05-15 01:45:00,54.7,34.3,29.61,SE,143,3.0,6.0,46,0.00,,,-99.99,Weather View 32 v60,2013-05-15 05:45:00,
2013-05-15 01:50:00,54.7,34.3,29.58,SE,139,0.0,6.0,46,0.00,,,-99.99,Weather View 32 v60,2013-05-15 05:50:00,
2013-05-15 01:55:00,54.5,34.1,29.58,SSE,148,4.0,6.0,46,0.00,,,-99.99,Weather View 32 v60,2013-05-15 05:55:00,
2013-05-15 02:00:00,54.5,34.1,29.58,SSE,155,0.0,4.0,46,0.00,,,-99.99,Weather View 32 v60,2013-05-15 06:00:00,
2013-05-15 02:05:00,54.5,34.6,29.58,SE,145,0.0,4.0,47,0.00,,,-99.99,Weather View 32 v60,2013-05-15 06:05:00,
2013-05-15 02:10:00,54.3,34.5,29.58,SE,145,0.0,4.0,47,0.00,,,-99.99,Weather View 32 v60,2013-05-15 06:10:00,
2013-05-15 02:15:00,54.3,34.5,29.58,SE,144,0.0,4.0,47,0.00,,,-99.99,Weather View 32 v60,2013-05-15 06:15:00,
2013-05-15 02:20:00,54.3,34.5,29.55,SSE,155,0.0,4.0,47,0.00,,,-99.99,Weather View 32 v60,2013-05-15 06:20:00,
2013-05-15 02:25:00,54.3,34.5,29.55,SSE,147,0.0,4.0,47,0.00,,,-99.99,Weather View 32 v60,2013-05-15 06:25:00,
2013-05-15 02:30:00,54.3,34.5,29.55,SE,143,3.0,4.0,47,0.00,,,-99.99,Weather View 32 v60,2013-05-15 06:30:00,
2013-05-15 02:35:00,54.3,34.5,29.55,SSE,149,0.0,4.0,47,0.00,,,-99.99,Weather View 32 v60,2013-05-15 06:35:00,
2013-05-15 02:45:00,54.3,34.5,29.55,SSE,162,0.0,4.0,47,0.00,,,-99.99,Weather View 32 v60,2013-05-15 06:45:00,
2013-05-15 02:50:00,54.5,34.6,29.55,SE,134,2.0,4.0,47,0.00,,,-99.99,Weather View 32 v60,2013-05-15 06:50:00,
2013-05-15 02:55:00,54.5,34.6,29.55,SE,140,0.0,4.0,47,0.00,,,-99.99,Weather View 32 v60,2013-05-15 06:55:00,
2013-05-15 03:00:00,54.5,34.6,29.55,SE,144,0.0,4.0,47,0.00,,,-99.99,Weather View 32 v60,2013-05-15 07:00:00,
2013-05-15 03:05:00,54.5,34.6,29.55,SE,145,0.0,4.0,47,0.00,,,-99.99,Weather View 32 v60,2013-05-15 07:05:00,
2013-05-15 03:10:00,54.5,34.6,29.55,SSE,148,3.0,4.0,47,0.00,,,-99.99,Weather View 32 v60,2013-05-15 07:10:00,
2013-05-15 03:15:00,54.5,34.6,29.55,SSE,149,0.0,4.0,47,0.00,,,-99.99,Weather View 32 v60,2013-05-15 07:15:00,
2013-05-15 03:25:00,54.9,35.0,29.52,SE,136,0.0,4.0,47,0.00,,,-99.99,Weather View 32 v60,2013-05-15 07:25:00,
2013-05-15 03:30:00,54.9,35.0,29.52,SE,139,0.0,4.0,47,0.00,,,-99.99,Weather View 32 v60,2013-05-15 07:30:00,
2013-05-15 03:35:00,55.0,35.1,29.52,SE,142,0.0,4.0,47,0.00,,,-99.99,Weather View 32 v60,2013-05-15 07:35:00,
2013-05-15 03:45:00,55.0,35.1,29.52,SE,127,0.0,4.0,47,0.00,,,-99.99,Weather View 32 v60,2013-05-15 07:45:00,
2013-05-15 03:50:00,55.0,35.1,29.52,SE,141,0.0,4.0,47,0.00,,,-99.99,Weather View 32 v60,2013-05-15 07:50:00,
2013-05-15 03:55:00,55.0,35.1,29.52,SE,141,0.0,4.0,47,0.00,,,-99.99,Weather View 32 v60,2013-05-15 07:55:00,
2013-05-15 04:05:00,55.0,35.1,29.52,SE,141,0.0,4.0,47,0.00,,,-99.99,Weather View 32 v60,2013-05-15 08:05:00,
2013-05-15 04:10:00,55.0,35.1,29.52,SE,141,0.0,4.0,47,0.00,,,-99.99,Weather View 32 v60,2013-05-15 08:10:00,
2013-05-15 04:15:00,55.0,35.1,29.52,SE,143,0.0,4.0,47,0.00,,,-99.99,Weather View 32 v60,2013-05-15 08:15:00,
2013-05-15 04:25:00,55.0,35.7,29.49,SSE,149,0.0,3.0,48,0.00,,,-99.99,Weather View 32 v60,2013-05-15 08:25:00,
2013-05-15 04:30:00,55.0,35.7,29.49,SSE,153,0.0,3.0,48,0.00,,,-99.99,Weather View 32 v60,2013-05-15 08:30:00,
2013-05-15 04:35:00,55.2,35.8,29.49,South,189,0.0,3.0,48,0.00,,,-99.99,Weather View 32 v60,2013-05-15 08:35:00,
2013-05-15 04:40:00,55.2,35.8,29.49,SSW,208,0.0,4.0,48,0.00,,,-99.99,Weather View 32 v60,2013-05-15 08:40:00,
2013-05-15 04:45:00,55.4,36.0,29.49,SSE,161,0.0,4.0,48,0.00,,,-99.99,Weather View 32 v60,2013-05-15 08:45:00,
2013-05-15 04:50:00,55.6,36.7,29.49,SSE,163,0.0,4.0,49,0.00,,,-99.99,Weather View 32 v60,2013-05-15 08:50:00,
2013-05-15 04:55:00,55.8,36.8,29.49,SW,228,0.0,4.0,49,0.00,,,-99.99,Weather View 32 v60,2013-05-15 08:55:00,
2013-05-15 05:00:00,55.8,36.8,29.49,NNW,335,0.0,4.0,49,0.00,,,-99.99,Weather View 32 v60,2013-05-15 09:00:00,
2013-05-15 05:05:00,55.9,37.0,29.49,NW,319,3.0,4.0,49,0.00,,,-99.99,Weather View 32 v60,2013-05-15 09:05:00,
2013-05-15 05:10:00,55.8,36.8,29.49,South,182,0.0,4.0,49,0.00,,,-99.99,Weather View 32 v60,2013-05-15 09:10:00,
2013-05-15 05:15:00,55.8,37.4,29.49,SW,224,0.0,4.0,50,0.00,,,-99.99,Weather View 32 v60,2013-05-15 09:15:00,
2013-05-15 05:20:00,55.9,37.5,29.49,South,170,0.0,4.0,50,0.00,,,-99.99,Weather View 32 v60,2013-05-15 09:20:00,
2013-05-15 05:25:00,55.9,37.5,29.49,South,169,0.0,4.0,50,0.00,,,-99.99,Weather View 32 v60,2013-05-15 09:25:00,
2013-05-15 05:30:00,56.1,38.2,29.49,SSE,160,0.0,4.0,51,0.00,,,-99.99,Weather View 32 v60,2013-05-15 09:30:00,
2013-05-15 05:35:00,56.3,38.4,29.49,SW,217,0.0,4.0,51,0.00,,,-99.99,Weather View 32 v60,2013-05-15 09:35:00,
2013-05-15 05:40:00,56.5,38.5,29.49,SE,124,0.0,4.0,51,0.00,,,-99.99,Weather View 32 v60,2013-05-15 09:40:00,
2013-05-15 05:45:00,56.7,38.7,29.49,SW,222,0.0,4.0,51,0.00,,,-99.99,Weather View 32 v60,2013-05-15 09:45:00,
2013-05-15 05:50:00,56.7,38.7,29.49,SW,231,6.0,6.0,51,0.00,,,-99.99,Weather View 32 v60,2013-05-15 09:50:00,
2013-05-15 05:55:00,56.8,39.4,29.49,SW,234,4.0,8.0,52,0.00,,,-99.99,Weather View 32 v60,2013-05-15 09:55:00,
2013-05-15 06:00:00,57.2,40.2,29.49,WNW,287,6.0,9.0,53,0.00,,,-99.99,Weather View 32 v60,2013-05-15 10:00:00,
2013-05-15 06:05:00,57.9,42.3,29.49,SW,231,6.0,11.0,56,0.00,,,-99.99,Weather View 32 v60,2013-05-15 10:05:00,
2013-05-15 06:10:00,58.8,43.1,29.49,WSW,256,12.0,13.0,56,0.00,,,-99.99,Weather View 32 v60,2013-05-15 10:10:00,
2013-05-15 06:15:00,59.7,42.5,29.49,West,267,10.0,13.0,53,0.00,,,-99.99,Weather View 32 v60,2013-05-15 10:15:00,
2013-05-15 06:20:00,60.6,40.8,29.52,WSW,252,13.0,15.0,48,0.00,,,-99.99,Weather View 32 v60,2013-05-15 10:20:00,
2013-05-15 06:25:00,61.7,40.1,29.52,West,266,8.0,15.0,45,0.00,,,-99.99,Weather View 32 v60,2013-05-15 10:25:00,
2013-05-15 06:30:00,62.4,39.6,29.52,West,280,9.0,15.0,43,0.00,,,-99.99,Weather View 32 v60,2013-05-15 10:30:00,
2013-05-15 06:35:00,63.0,38.8,29.52,NW,306,8.0,15.0,41,0.00,,,-99.99,Weather View 32 v60,2013-05-15 10:35:00,
2013-05-15 06:40:00,63.1,37.7,29.52,WNW,291,12.0,15.0,39,0.00,,,-99.99,Weather View 32 v60,2013-05-15 10:40:00,
2013-05-15 06:50:00,63.3,37.2,29.52,WNW,284,11.0,15.0,38,0.00,,,-99.99,Weather View 32 v60,2013-05-15 10:50:00,
2013-05-15 06:55:00,63.5,36.7,29.52,WNW,285,13.0,15.0,37,0.00,,,-99.99,Weather View 32 v60,2013-05-15 10:55:00,
2013-05-15 07:00:00,63.5,36.7,29.52,West,278,9.0,15.0,37,0.00,,,-99.99,Weather View 32 v60,2013-05-15 11:00:00,
2013-05-15 07:05:00,63.5,36.7,29.55,WNW,294,12.0,15.0,37,0.00,,,-99.99,Weather View 32 v60,2013-05-15 11:05:00,
2013-05-15 07:10:00,63.5,36.0,29.55,WNW,301,8.0,15.0,36,0.00,,,-99.99,Weather View 32 v60,2013-05-15 11:10:00,
2013-05-15 07:15:00,63.5,36.0,29.55,WNW,286,8.0,15.0,36,0.00,,,-99.99,Weather View 32 v60,2013-05-15 11:15:00,
2013-05-15 07:25:00,63.5,36.0,29.55,NW,310,8.0,15.0,36,0.00,,,-99.99,Weather View 32 v60,2013-05-15 11:25:00,
2013-05-15 07:30:00,63.7,35.5,29.55,NW,307,9.0,14.0,35,0.00,,,-99.99,Weather View 32 v60,2013-05-15 11:30:00,
2013-05-15 07:45:00,63.9,35.6,29.55,WNW,300,6.0,14.0,35,0.00,,,-99.99,Weather View 32 v60,2013-05-15 11:45:00,
2013-05-15 07:50:00,63.9,35.6,29.58,West,281,8.0,14.0,35,0.00,,,-99.99,Weather View 32 v60,2013-05-15 11:50:00,
2013-05-15 07:55:00,64.0,35.8,29.58,WNW,292,11.0,14.0,35,0.00,,,-99.99,Weather View 32 v60,2013-05-15 11:55:00,
2013-05-15 08:00:00,64.0,35.0,29.58,WNW,303,5.0,13.0,34,0.00,,,-99.99,Weather View 32 v60,2013-05-15 12:00:00,
2013-05-15 08:05:00,64.2,35.2,29.58,West,265,4.0,13.0,34,0.00,,,-99.99,Weather View 32 v60,2013-05-15 12:05:00,
2013-05-15 08:15:00,64.6,34.8,29.58,NW,316,8.0,13.0,33,0.00,,,-99.99,Weather View 32 v60,2013-05-15 12:15:00,
2013-05-15 08:20:00,64.8,34.9,29.58,NW,314,10.0,13.0,33,0.00,,,-99.99,Weather View 32 v60,2013-05-15 12:20:00,
2013-05-15 08:25:00,64.9,34.3,29.58,WNW,301,11.0,13.0,32,0.00,,,-99.99,Weather View 32 v60,2013-05-15 12:25:00,
2013-05-15 08:30:00,65.1,34.5,29.58,WNW,301,5.0,13.0,32,0.00,,,-99.99,Weather View 32 v60,2013-05-15 12:30:00,
2013-05-15 08:40:00,65.3,33.0,29.61,WNW,298,9.0,15.0,30,0.00,,,-99.99,Weather View 32 v60,2013-05-15 12:40:00,
2013-05-15 08:45:00,65.5,33.2,29.61,NW,309,10.0,15.0,30,0.00,,,-99.99,Weather View 32 v60,2013-05-15 12:45:00,
2013-05-15 08:50:00,65.5,33.2,29.61,WNW,291,8.0,15.0,30,0.00,,,-99.99,Weather View 32 v60,2013-05-15 12:50:00,
2013-05-15 09:00:00,65.7,32.5,29.61,WNW,298,11.0,15.0,29,0.00,,,-99.99,Weather View 32 v60,2013-05-15 13:00:00,
2013-05-15 09:05:00,65.8,32.6,29.61,WNW,284,13.0,15.0,29,0.00,,,-99.99,Weather View 32 v60,2013-05-15 13:05:00,
2013-05-15 09:10:00,65.8,32.6,29.61,West,273,11.0,15.0,29,0.00,,,-99.99,Weather View 32 v60,2013-05-15 13:10:00,
2013-05-15 09:15:00,66.0,32.8,29.61,WNW,303,10.0,15.0,29,0.00,,,-99.99,Weather View 32 v60,2013-05-15 13:15:00,
2013-05-15 09:20:00,66.2,32.1,29.61,NW,305,4.0,15.0,28,0.00,,,-99.99,Weather View 32 v60,2013-05-15 13:20:00,
2013-05-15 09:25:00,66.2,31.2,29.61,West,275,9.0,15.0,27,0.00,,,-99.99,Weather View 32 v60,2013-05-15 13:25:00,
2013-05-15 09:30:00,66.4,31.3,29.61,WNW,290,11.0,21.0,27,0.00,,,-99.99,Weather View 32 v60,2013-05-15 13:30:00,
2013-05-15 09:40:00,66.7,30.7,29.64,NNW,337,6.0,21.0,26,0.00,,,-99.99,Weather View 32 v60,2013-05-15 13:40:00,
2013-05-15 09:45:00,66.9,30.8,29.64,NW,322,3.0,21.0,26,0.00,,,-99.99,Weather View 32 v60,2013-05-15 13:45:00,
2013-05-15 09:50:00,67.3,31.1,29.64,NW,313,8.0,21.0,26,0.00,,,-99.99,Weather View 32 v60,2013-05-15 13:50:00,
2013-05-15 10:05:00,67.6,30.5,29.64,NW,304,8.0,21.0,25,0.00,,,-99.99,Weather View 32 v60,2013-05-15 14:05:00,
2013-05-15 10:10:00,67.8,30.6,29.64,WNW,297,13.0,21.0,25,0.00,,,-99.99,Weather View 32 v60,2013-05-15 14:10:00,
2013-05-15 10:15:00,68.0,29.8,29.64,NW,320,6.0,21.0,24,0.00,,,-99.99,Weather View 32 v60,2013-05-15 14:15:00,
2013-05-15 10:25:00,68.4,30.1,29.64,WNW,297,9.0,21.0,24,0.00,,,-99.99,Weather View 32 v60,2013-05-15 14:25:00,
2013-05-15 10:34:00,68.7,30.4,29.67,NW,306,8.0,19.0,24,0.00,,,-99.99,Weather View 32 v60,2013-05-15 14:34:00,
2013-05-15 10:40:00,68.9,30.5,29.67,WNW,300,8.0,19.0,24,0.00,,,-99.99,Weather View 32 v60,2013-05-15 14:40:00,
2013-05-15 10:45:00,68.9,30.5,29.67,NW,310,4.0,19.0,24,0.00,,,-99.99,Weather View 32 v60,2013-05-15 14:45:00,
2013-05-15 10:50:00,69.1,30.7,29.67,NNE,31,4.0,19.0,24,0.00,,,-99.99,Weather View 32 v60,2013-05-15 14:50:00,
2013-05-15 11:00:00,69.3,29.8,29.67,NW,313,5.0,17.0,23,0.00,,,-99.99,Weather View 32 v60,2013-05-15 15:00:00,
2013-05-15 11:05:00,69.3,29.8,29.67,NW,318,11.0,17.0,23,0.00,,,-99.99,Weather View 32 v60,2013-05-15 15:05:00,
2013-05-15 11:10:00,69.4,29.9,29.67,WNW,296,9.0,17.0,23,0.00,,,-99.99,Weather View 32 v60,2013-05-15 15:10:00,
2013-05-15 11:15:00,69.6,31.1,29.67,WNW,292,12.0,17.0,24,0.00,,,-99.99,Weather View 32 v60,2013-05-15 15:15:00,
2013-05-15 11:20:00,69.6,31.1,29.67,WSW,242,13.0,17.0,24,0.00,,,-99.99,Weather View 32 v60,2013-05-15 15:20:00,
2013-05-15 11:30:00,69.8,30.2,29.67,NW,306,9.0,20.0,23,0.00,,,-99.99,Weather View 32 v60,2013-05-15 15:30:00,
2013-05-15 11:35:00,69.8,30.2,29.69,WNW,300,11.0,20.0,23,0.00,,,-99.99,Weather View 32 v60,2013-05-15 15:35:00,
2013-05-15 11:40:00,70.0,30.4,29.69,WNW,301,9.0,20.0,23,0.00,,,-99.99,Weather View 32 v60,2013-05-15 15:40:00,
2013-05-15 11:45:00,70.0,30.4,29.69,WNW,294,11.0,20.0,23,0.00,,,-99.99,Weather View 32 v60,2013-05-15 15:45:00,
2013-05-15 11:50:00,70.2,30.5,29.69,WNW,293,6.0,20.0,23,0.00,,,-99.99,Weather View 32 v60,2013-05-15 15:50:00,
2013-05-15 11:55:00,70.2,30.5,29.69,NNW,340,5.0,20.0,23,0.00,,,-99.99,Weather View 32 v60,2013-05-15 15:55:00,
2013-05-15 12:05:00,70.2,30.5,29.69,WNW,294,6.0,20.0,23,0.00,,,-99.99,Weather View 32 v60,2013-05-15 16:05:00,
2013-05-15 12:10:00,70.2,30.5,29.69,West,273,6.0,20.0,23,0.00,,,-99.99,Weather View 32 v60,2013-05-15 16:10:00,
2013-05-15 12:20:00,70.5,30.8,29.69,WNW,292,9.0,20.0,23,0.00,,,-99.99,Weather View 32 v60,2013-05-15 16:20:00,
2013-05-15 12:30:00,70.9,31.1,29.69,NW,324,9.0,17.0,23,0.00,,,-99.99,Weather View 32 v60,2013-05-15 16:30:00,
2013-05-15 12:35:00,71.1,31.3,29.72,WNW,300,11.0,17.0,23,0.00,,,-99.99,Weather View 32 v60,2013-05-15 16:35:00,
2013-05-15 12:40:00,71.1,31.3,29.72,WNW,285,13.0,17.0,23,0.00,,,-99.99,Weather View 32 v60,2013-05-15 16:40:00,
2013-05-15 12:45:00,71.2,30.3,29.72,NW,305,6.0,17.0,22,0.00,,,-99.99,Weather View 32 v60,2013-05-15 16:45:00,
2013-05-15 12:55:00,71.4,30.5,29.72,WNW,299,11.0,17.0,22,0.00,,,-99.99,Weather View 32 v60,2013-05-15 16:55:00,
2013-05-15 13:00:00,71.4,30.5,29.72,NNW,328,6.0,17.0,22,0.00,,,-99.99,Weather View 32 v60,2013-05-15 17:00:00,
2013-05-15 13:05:00,71.6,30.6,29.72,WNW,282,8.0,17.0,22,0.00,,,-99.99,Weather View 32 v60,2013-05-15 17:05:00,
2013-05-15 13:10:00,71.8,30.8,29.72,WNW,289,9.0,17.0,22,0.00,,,-99.99,Weather View 32 v60,2013-05-15 17:10:00,
2013-05-15 13:15:00,71.8,30.8,29.72,WNW,292,11.0,17.0,22,0.00,,,-99.99,Weather View 32 v60,2013-05-15 17:15:00,
2013-05-15 13:20:00,72.0,29.8,29.72,WNW,291,8.0,17.0,21,0.00,,,-99.99,Weather View 32 v60,2013-05-15 17:20:00,
2013-05-15 13:25:00,72.1,31.1,29.72,WNW,293,12.0,17.0,22,0.00,,,-99.99,Weather View 32 v60,2013-05-15 17:25:00,
2013-05-15 13:30:00,72.3,31.2,29.72,NNW,329,8.0,18.0,22,0.00,,,-99.99,Weather View 32 v60,2013-05-15 17:30:00,
2013-05-15 13:35:00,72.3,30.1,29.72,WSW,255,9.0,18.0,21,0.00,,,-99.99,Weather View 32 v60,2013-05-15 17:35:00,
2013-05-15 13:40:00,72.3,30.1,29.72,WNW,299,13.0,18.0,21,0.00,,,-99.99,Weather View 32 v60,2013-05-15 17:40:00,
2013-05-15 13:50:00,72.3,30.1,29.72,NW,310,5.0,18.0,21,0.00,,,-99.99,Weather View 32 v60,2013-05-15 17:50:00,
2013-05-15 14:05:00,72.9,28.1,29.72,WNW,297,10.0,18.0,19,0.00,,,-99.99,Weather View 32 v60,2013-05-15 18:05:00,
2013-05-15 14:15:00,73.2,28.4,29.72,NNW,344,3.0,18.0,19,0.00,,,-99.99,Weather View 32 v60,2013-05-15 18:15:00,
2013-05-15 14:20:00,73.4,27.2,29.69,NNW,333,4.0,18.0,18,0.00,,,-99.99,Weather View 32 v60,2013-05-15 18:20:00,
2013-05-15 14:25:00,73.4,27.2,29.69,NNW,334,4.0,18.0,18,0.00,,,-99.99,Weather View 32 v60,2013-05-15 18:25:00,
2013-05-15 14:35:00,73.8,24.7,29.72,WNW,284,8.0,17.0,16,0.00,,,-99.99,Weather View 32 v60,2013-05-15 18:35:00,
2013-05-15 14:40:00,73.8,24.7,29.72,NNE,28,3.0,15.0,16,0.00,,,-99.99,Weather View 32 v60,2013-05-15 18:40:00,
2013-05-15 14:45:00,73.9,24.8,29.72,North,350,4.0,15.0,16,0.00,,,-99.99,Weather View 32 v60,2013-05-15 18:45:00,
2013-05-15 14:50:00,73.9,24.8,29.72,NNW,342,4.0,15.0,16,0.00,,,-99.99,Weather View 32 v60,2013-05-15 18:50:00,
2013-05-15 14:55:00,74.1,25.0,29.72,NW,316,4.0,15.0,16,0.00,,,-99.99,Weather View 32 v60,2013-05-15 18:55:00,
2013-05-15 15:05:00,74.5,25.2,29.72,NW,308,3.0,15.0,16,0.00,,,-99.99,Weather View 32 v60,2013-05-15 19:05:00,
2013-05-15 15:10:00,74.5,25.2,29.72,NNW,333,8.0,15.0,16,0.00,,,-99.99,Weather View 32 v60,2013-05-15 19:10:00,
2013-05-15 15:15:00,74.7,25.4,29.72,WSW,250,8.0,15.0,16,0.00,,,-99.99,Weather View 32 v60,2013-05-15 19:15:00,
2013-05-15 15:21:00,74.7,25.4,29.72,South,177,4.0,15.0,16,0.00,,,-99.99,Weather View 32 v60,2013-05-15 19:21:00,
2013-05-15 15:30:00,74.8,25.5,29.72,NNW,332,3.0,15.0,16,0.00,,,-99.99,Weather View 32 v60,2013-05-15 19:30:00,
2013-05-15 15:35:00,75.0,25.7,29.69,NW,318,6.0,15.0,16,0.00,,,-99.99,Weather View 32 v60,2013-05-15 19:35:00,
2013-05-15 15:45:00,75.4,24.4,29.69,NW,311,11.0,19.0,15,0.00,,,-99.99,Weather View 32 v60,2013-05-15 19:45:00,
2013-05-15 15:55:00,75.4,24.4,29.72,NW,307,6.0,19.0,15,0.00,,,-99.99,Weather View 32 v60,2013-05-15 19:55:00,
2013-05-15 16:10:00,75.4,24.4,29.72,WNW,287,4.0,19.0,15,0.00,,,-99.99,Weather View 32 v60,2013-05-15 20:10:00,
2013-05-15 16:15:00,75.4,24.4,29.72,West,262,11.0,19.0,15,0.00,,,-99.99,Weather View 32 v60,2013-05-15 20:15:00,
2013-05-15 16:20:00,75.6,24.6,29.69,West,272,8.0,19.0,15,0.00,,,-99.99,Weather View 32 v60,2013-05-15 20:20:00,
2013-05-15 16:25:00,75.7,24.7,29.69,WNW,292,9.0,19.0,15,0.00,,,-99.99,Weather View 32 v60,2013-05-15 20:25:00,
2013-05-15 16:30:00,75.9,24.8,29.69,NW,320,3.0,19.0,15,0.00,,,-99.99,Weather View 32 v60,2013-05-15 20:30:00,
2013-05-15 16:35:00,75.9,24.8,29.72,NW,307,13.0,19.0,15,0.00,,,-99.99,Weather View 32 v60,2013-05-15 20:35:00,
2013-05-15 16:40:00,76.1,25.0,29.72,West,259,15.0,16.0,15,0.00,,,-99.99,Weather View 32 v60,2013-05-15 20:40:00,
2013-05-15 16:50:00,76.3,25.1,29.72,WNW,285,8.0,16.0,15,0.00,,,-99.99,Weather View 32 v60,2013-05-15 20:50:00,
2013-05-15 16:55:00,76.3,25.1,29.72,WNW,282,6.0,16.0,15,0.00,,,-99.99,Weather View 32 v60,2013-05-15 20:55:00,
2013-05-15 17:05:00,76.5,25.3,29.72,WNW,291,12.0,18.0,15,0.00,,,-99.99,Weather View 32 v60,2013-05-15 21:05:00,
2013-05-15 17:10:00,76.3,25.1,29.72,West,270,12.0,18.0,15,0.00,,,-99.99,Weather View 32 v60,2013-05-15 21:10:00,
2013-05-15 17:15:00,76.1,25.0,29.72,WSW,248,11.0,18.0,15,0.00,,,-99.99,Weather View 32 v60,2013-05-15 21:15:00,
2013-05-15 17:22:00,75.9,24.8,29.69,West,271,8.0,18.0,15,0.00,,,-99.99,Weather View 32 v60,2013-05-15 21:22:00,
2013-05-15 17:35:00,75.2,24.3,29.72,WNW,303,8.0,18.0,15,0.00,,,-99.99,Weather View 32 v60,2013-05-15 21:35:00,
2013-05-15 17:45:00,75.4,24.4,29.72,West,280,11.0,18.0,15,0.00,,,-99.99,Weather View 32 v60,2013-05-15 21:45:00,
2013-05-15 17:50:00,75.4,24.4,29.72,WNW,293,11.0,18.0,15,0.00,,,-99.99,Weather View 32 v60,2013-05-15 21:50:00,
2013-05-15 18:00:00,74.8,20.6,29.72,WNW,300,9.0,18.0,13,0.00,,,-99.99,Weather View 32 v60,2013-05-15 22:00:00,
2013-05-15 18:05:00,74.7,20.4,29.72,WNW,301,6.0,15.0,13,0.00,,,-99.99,Weather View 32 v60,2013-05-15 22:05:00,
2013-05-15 18:10:00,74.3,20.2,29.72,WNW,285,14.0,15.0,13,0.00,,,-99.99,Weather View 32 v60,2013-05-15 22:10:00,
2013-05-15 18:15:00,73.9,19.9,29.72,WNW,295,6.0,15.0,13,0.00,,,-99.99,Weather View 32 v60,2013-05-15 22:15:00,
2013-05-15 18:25:00,73.6,19.6,29.72,WNW,285,8.0,15.0,13,0.00,,,-99.99,Weather View 32 v60,2013-05-15 22:25:00,
2013-05-15 18:30:00,73.4,19.5,29.72,WNW,286,6.0,15.0,13,0.00,,,-99.99,Weather View 32 v60,2013-05-15 22:30:00,
2013-05-15 18:35:00,73.2,24.2,29.72,WNW,299,8.0,15.0,16,0.00,,,-99.99,Weather View 32 v60,2013-05-15 22:35:00,
2013-05-15 18:45:00,73.2,24.2,29.72,WNW,288,13.0,15.0,16,0.00,,,-99.99,Weather View 32 v60,2013-05-15 22:45:00,
2013-05-15 19:00:00,72.5,23.7,29.72,WNW,290,6.0,14.0,16,0.00,,,-99.99,Weather View 32 v60,2013-05-15 23:00:00,
2013-05-15 19:10:00,72.1,23.4,29.72,WNW,298,6.0,14.0,16,0.00,,,-99.99,Weather View 32 v60,2013-05-15 23:10:00,
2013-05-15 19:15:00,72.1,23.4,29.72,WNW,292,5.0,13.0,16,0.00,,,-99.99,Weather View 32 v60,2013-05-15 23:15:00,
2013-05-15 19:22:00,72.0,23.2,29.72,NW,314,3.0,13.0,16,0.00,,,-99.99,Weather View 32 v60,2013-05-15 23:22:00,
2013-05-15 19:35:00,71.4,24.2,29.72,NW,305,5.0,13.0,17,0.00,,,-99.99,Weather View 32 v60,2013-05-15 23:35:00,
2013-05-15 19:45:00,71.1,23.9,29.72,NW,305,11.0,13.0,17,0.00,,,-99.99,Weather View 32 v60,2013-05-15 23:45:00,
2013-05-15 19:50:00,71.1,23.9,29.75,WNW,285,8.0,13.0,17,0.00,,,-99.99,Weather View 32 v60,2013-05-15 23:50:00,
2013-05-15 20:00:00,70.7,23.7,29.75,NW,304,13.0,13.0,17,0.00,,,-99.99,Weather View 32 v60,2013-05-16 00:00:00,
2013-05-15 20:05:00,70.7,23.7,29.75,WNW,288,9.0,13.0,17,0.00,,,-99.99,Weather View 32 v60,2013-05-16 00:05:00,
2013-05-15 20:10:00,70.5,23.5,29.75,WNW,302,8.0,13.0,17,0.00,,,-99.99,Weather View 32 v60,2013-05-16 00:10:00,
2013-05-15 20:15:00,70.3,23.4,29.75,WNW,288,8.0,13.0,17,0.00,,,-99.99,Weather View 32 v60,2013-05-16 00:15:00,
2013-05-15 20:20:00,70.2,23.2,29.75,WNW,293,6.0,13.0,17,0.00,,,-99.99,Weather View 32 v60,2013-05-16 00:20:00,
2013-05-15 20:25:00,70.0,23.1,29.75,WNW,300,7.0,13.0,17,0.00,,,-99.99,Weather View 32 v60,2013-05-16 00:25:00,
2013-05-15 20:35:00,69.6,22.8,29.75,WNW,297,8.0,13.0,17,0.00,,,-99.99,Weather View 32 v60,2013-05-16 00:35:00,
2013-05-15 20:40:00,69.6,22.8,29.75,WNW,295,5.0,13.0,17,0.00,,,-99.99,Weather View 32 v60,2013-05-16 00:40:00,
2013-05-15 20:50:00,69.3,22.5,29.72,NW,311,5.0,13.0,17,0.00,,,-99.99,Weather View 32 v60,2013-05-16 00:50:00,
2013-05-15 20:55:00,69.1,22.3,29.72,NW,317,5.0,13.0,17,0.00,,,-99.99,Weather View 32 v60,2013-05-16 00:55:00,
2013-05-15 21:05:00,68.7,22.0,29.75,NW,314,5.0,13.0,17,0.00,,,-99.99,Weather View 32 v60,2013-05-16 01:05:00,
2013-05-15 21:10:00,68.4,21.8,29.75,WNW,302,4.0,13.0,17,0.00,,,-99.99,Weather View 32 v60,2013-05-16 01:10:00,
2013-05-15 21:20:00,67.6,21.2,29.75,WNW,287,3.0,13.0,17,0.00,,,-99.99,Weather View 32 v60,2013-05-16 01:20:00,
2013-05-15 21:25:00,67.5,21.0,29.75,West,262,3.0,13.0,17,0.00,,,-99.99,Weather View 32 v60,2013-05-16 01:25:00,
2013-05-15 21:30:00,67.1,20.7,29.75,West,272,3.0,13.0,17,0.00,,,-99.99,Weather View 32 v60,2013-05-16 01:30:00,
2013-05-15 21:35:00,66.9,20.6,29.75,West,270,3.0,11.0,17,0.00,,,-99.99,Weather View 32 v60,2013-05-16 01:35:00,
2013-05-15 21:40:00,66.4,20.2,29.75,West,267,3.0,8.0,17,0.00,,,-99.99,Weather View 32 v60,2013-05-16 01:40:00,
2013-05-15 21:50:00,65.7,20.9,29.75,West,265,0.0,8.0,18,0.00,,,-99.99,Weather View 32 v60,2013-05-16 01:50:00,
2013-05-15 22:00:00,64.9,20.3,29.75,West,265,0.0,6.0,18,0.00,,,-99.99,Weather View 32 v60,2013-05-16 02:00:00,
2013-05-15 22:05:00,64.4,22.4,29.75,West,265,0.0,6.0,20,0.00,,,-99.99,Weather View 32 v60,2013-05-16 02:05:00,
2013-05-15 22:10:00,63.9,23.1,29.75,West,265,0.0,5.0,21,0.00,,,-99.99,Weather View 32 v60,2013-05-16 02:10:00,
2013-05-15 22:15:00,63.3,24.8,29.75,West,265,0.0,5.0,23,0.00,,,-99.99,Weather View 32 v60,2013-05-16 02:15:00,
2013-05-15 22:20:00,63.0,24.5,29.78,West,265,0.0,4.0,23,0.00,,,-99.99,Weather View 32 v60,2013-05-16 02:20:00,
2013-05-15 22:25:00,62.2,24.9,29.78,West,265,0.0,4.0,24,0.00,,,-99.99,Weather View 32 v60,2013-05-16 02:25:00,
2013-05-15 22:35:00,61.3,24.2,29.78,West,265,0.0,4.0,24,0.00,,,-99.99,Weather View 32 v60,2013-05-16 02:35:00,
2013-05-15 22:40:00,60.8,23.7,29.78,West,265,0.0,4.0,24,0.00,,,-99.99,Weather View 32 v60,2013-05-16 02:40:00,
2013-05-15 22:45:00,60.3,24.2,29.78,West,265,0.0,4.0,25,0.00,,,-99.99,Weather View 32 v60,2013-05-16 02:45:00,
2013-05-15 23:10:00,58.3,23.5,29.78,West,265,0.0,0.0,26,0.00,,,-99.99,Weather View 32 v60,2013-05-16 03:10:00,
2013-05-15 23:20:00,57.7,23.0,29.78,West,265,0.0,0.0,26,0.00,,,-99.99,Weather View 32 v60,2013-05-16 03:20:00,
2013-05-15 23:30:00,57.0,23.3,29.78,West,265,0.0,0.0,27,0.00,,,-99.99,Weather View 32 v60,2013-05-16 03:30:00,
2013-05-15 23:35:00,56.7,23.0,29.78,West,265,0.0,0.0,27,0.00,,,-99.99,Weather View 32 v60,2013-05-16 03:35:00,
2013-05-15 23:50:00,55.9,23.2,29.78,West,265,0.0,0.0,28,0.00,,,-99.99,Weather View 32 v60,2013-05-16 03:50:00,
2013-05-15 23:55:00,55.6,23.8,29.78,West,265,0.0,0.0,29,0.00,,,-99.99,Weather View 32 v60,2013-05-16 03:55:00,